Погода в Новом Буяне

Россия / Самарская область     53°41′04″N   50°02′39″E
темп.,
°C
ветер,
м/с
пор.,
м/с
влажн.,
%
обл.,
%
осадки,
мм/ч
давл.,
гПа
погр.,
м
20 мая, пт
пт2001:00+5зюз347712 0.0 101162
04:00+4зюз348515 0.0 101058
07:00+7з2379100 0.1 1010185
10:00+7з2285100 0.6 1011274
13:00+12зсз3557100 0.3 10091642
16:00+11сз6657100 0.3 10081492
19:00+8ссз6871100 0.1 1008881
22:00+5ссз511785 0.2 1008425
21 мая, сб
сб2101:00+3сз411885 0.0 1007359
04:00+2сз612915 0.0 1006422
07:00+4ссз712815 0.0 1007651
10:00+8ссз8106455 0.3 10071512
13:00+8сз8106287 0.6 10061646
16:00+7ссз7106599 0.9 10071483
19:00+7ссз59705 0.1 10071163
22:00+3сз3583100 0.1 100794
22 мая, вс
вс2201:00+2сз34895 0.0 100663
04:00+2з229070 0.0 100628
07:00+5зсз3482100 0.0 1004561
10:00+6зсз357781 0.7 1003885
13:00+9зсз5651100 0.4 10021988
16:00+10зсз345484 0.4 10011487
19:00+9ссз2363100 0.0 1000152
22:00+6св2269100 0.0 99940
23 мая, пн
пн2301:00+5св2375100 0.0 99758
04:00+4с348198 0.0 99765
07:00+5ссз4575100 0.0 998299
10:00+8сз45585 0.0 9981267
13:00+9зсз6754100 0.0 9991854
16:00+8зсз676175 0.1 10011309
19:00+8з466979 0.1 10021073
22:00+4зюз488410 0.1 1003168
24 мая, вт
вт2401:00+3зюз49905 0.0 1003187
04:00+3юз410905 0.0 1004231
07:00+6юз69795 0.0 1004421
10:00+9з576491 0.0 10051421
13:00+9зсз685791 0.0 10061454
16:00+9сз5563100 0.1 10071110
19:00+8сз3472100 0.0 1008663
22:00+6з367974 0.0 1009643